AQI (83)

Current Conditions for Foresthill, CA. Clear skies, Dry   
Visibility: 10 miles
Foresthill Advisory text: No Warning

  Summary / Temperature 

Current Temperature
44.2°F
6.8°C
(24/hr Ago)
50.1°F
(Apparent temp)
39.7°F
Cool
Wind Chill Graphs
44.2°F 
Wind Chill-Avg
41.7°F 5.4°C
 --- Virtual Temp: 45.5°F ---

 Temp Rate:

 24/hr Difference:

 Avg Running Temp:

 Todays High:

 Todays Low:

 Y-days High:

 Y-days Low:

 Todays WChill:

 Y-days WChill:

 Evapotranspiration:

+0.7°F/hr 

-5.9°F

43.1°F

44.6°F 12:01am

42.2°F 5:08am

54.4°F 3:16pm

44.5°F 11:28pm

36.6°F 2:50am

40.2°F 11:43pm

0.004 in

115' Above Ground

 Temperature:

 6'AGL VRS 115'AGL:

 Avg Running Temp:

 Humidity:

 Todays High:

 Todays Low:

 Y-days High:

 Y-days Low:

52.0°F 

+7.8°F

49.4°F

42% 

52.0°F 8:05am

46.0°F 2:52am

56.0°F 12:00am

48.0°F 11:52pm

Temp & Humidity Graphs

  Wind 

Wind Speed

 6.0 mph

Gusting to

 7.0 mph

Wind from E

95°  E

Light breeze

 Avg speed:

 Wind Run:

 Peak Gust:

  2.0 mph 

15.0 miles

  13.0 mph 7:57am

  Almanac  

Moon age: 8 days,12 hours,40 minutes,62%

Waxing Gibbous
66%
Illuminated
8 days in cycle

 Moonrise:

 Moonset:

 Sunrise:

 Sunset:

 Solar Noon:

12:27pm

1:50am

7:10am

5:17pm

12:16pm

1min 55s more daylight tomorrow 

  Solar Radiation 

(Current Solar)
  104 W/m2 (108%)
(Todays High)
 104 W/m2@8:09am
Feels like: 45°F in the sun

Rain

 Rain Today:

 Rain Rate (/hr):

 Rain last hour:

 Rain Yesterday:

 This Month:

 Season Total:

34 Days Since Last Rain Day

0.00 in

0.000 in

0.00 in

0.00 in

0.00 in

24.31 in

Updated Time

Updated: 1/28/15  8:09am

(Updated  sec ago)

Humidity & Barometer

 Humidity:

 Wetbulb:

 Dew Point:

 Barometer:

66% 

39.9°F 

33.6°F 

30.296 inHg 

 Baro Trend:  Steady 
Northern Calif
Preparedness
Fire 
Level 

    UV Index  

(Current UV)
0.0  None
(Todays High) @ 12:00am
0.0   None

Weather Underground 5 day Forecast

Wed Thu Fri Sat Sun
Partly Cloudy Partly Cloudy Clear Clear Partly Cloudy
Partly Cloudy Partly Cloudy Clear Clear Partly Cloudy
63 61 64 66 61
52 52 50 48 50

Foresthill Probe 2 Stats  
Foresthill Probe 2: is located on Thomas Street
at 3000 feet. The main Foresthill Weather site
is located on Melody ln at the 2860 foot elevation

Calm
43.4°F
6.3°C
Temp Rate:
+1.0°F
Calm
Gusting to
1.0 mph
(Humidity)
63%
Wind from ESE
120°  ESE
Updated: 28/01/15 - 08:08:43
 Todays High: 43.4°F 08:07
 Todays Low: 40.4°F 04:59
 Rain Today: 0.00 in
 Season Total: 23.45 in

Foresthill Wx: Monthly,Yearly, Highs and Lows 

Foresthill  
This Weather Data is coming from the main Foresthill
Weather site located on Melody ln at the 2860 foot
elevation
Not Foresthill Probe 2
Weather Data
Month
  High
Month
  Low
Year
High
Year
Low
Temp 71.3F
1/24/15
29.7F
1/1/15
71.3F
1/24/15
29.7F
1/1/15
Humidity 94%
1/18/15
23%
1/24/15
94%
1/18/15
23%
1/24/15
Heat Index 70.2F
1/24/15
32.1F
1/1/15
70.2F
1/24/15
32.1F
1/1/15
Wind Chill 71.3F
1/24/15
23.5F
1/2/15
71.3F
1/24/15
23.5F
1/2/15
Wind Gust 38 mph
1/24/15
0 mph
1/1/15
38 mph
1/24/15
0 mph
1/1/15
Barometer 30.51 in
1/4/15
29.98 in
1/10/15
30.51 in
1/4/15
29.98 in
1/10/15
ET 0.13 in
1/24/15
0.00 in
1/1/15
0.13 in
1/24/15
0.00 in
1/1/15
Dew Point 51.7F
1/18/15
10.0F
1/1/15
51.7F
1/18/15
10.0F
1/1/15
Infrared Satellite Regional Radar Satellite Imagery Sacramento,CA.  (click to enlarge)
NWS Weather Forecast - Outlook: Today and Tonight
Today

Partly Sunny
Partly
Sunny
Hi 62 °F
NWS forecast: Partly sunny, with a high near 62. East northeast wind 5 to 9 mph becoming calm in the afternoon.
Tonight

Partly Cloudy
Partly
Cloudy
Lo 42 °F
NWS forecast: Partly cloudy, with a low around 42. East northeast wind 5 to 8 mph.
NWS Weather Forecast - Summary
Updated: Wednesday, January 28, 2015 - 4:08am (PST)
YR.NO 10 Day Weather forecast
Last update: 01/27/2015 @ 23:04
Next update: 01/28/2015 @ 12:00
Provided by: 22
      Temperature Precipitation Pressure Wind  
Today
01/28/2015
10:00 13:00 52°F   30.22 inHg Light air from east-northeast 3 mph
  13:00 19:00 57°F   30.17 inHg Light breeze from west-southwest 5 mph
  19:00 01:00 46°F   30.17 inHg Light air from east 3 mph
    (Click to enlarge)
meteogram

    Forecast for next 9 days

      Temperature Precip Pressure Wind  
Thursday
01/29/2015
01:00 07:00 39°F   30.17 inHg Light breeze from east-northeast 6 mph
  07:00 13:00 37°F   30.15 inHg Light breeze from east-northeast 6 mph
  13:00 19:00 61°F   30.07 inHg Light breeze from west 4 mph
  19:00 01:00 50°F   30.07 inHg Light air from east 2 mph
      Temperature Precip Pressure Wind  
Friday
01/30/2015
01:00 07:00 39°F   30.05 inHg Light breeze from east-northeast 7 mph
  07:00 13:00 37°F   30.02 inHg Light breeze from east-northeast 7 mph
  10:00 16:00 54°F   29.99 inHg Light breeze from east-northeast 5 mph
  16:00 22:00 59°F   29.90 inHg Light air from north-northeast 2 mph
  22:00 04:00 43°F   29.94 inHg Gentle breeze from east-northeast 8 mph
      Temperature Precip Pressure Wind  
Saturday
01/31/2015
04:00 10:00 41°F   29.92 inHg Light breeze from northeast 4 mph
  10:00 16:00 54°F   30.00 inHg Light breeze from northeast 4 mph
  16:00 22:00 61°F   29.94 inHg Light air from north-northeast 2 mph
  22:00 04:00 37°F   30.04 inHg Light breeze from east-northeast 6 mph
      Temperature Precip Pressure Wind  
Sunday
02/01/2015
04:00 10:00 34°F   30.07 inHg Light air from east-northeast 1 mph
  10:00 16:00 50°F < 0.01 in 30.14 inHg Light air from east 2 mph
  16:00 22:00 54°F   30.13 inHg Light breeze from south-southwest 4 mph
  22:00 04:00 37°F   30.14 inHg Light air from east-northeast 2 mph
      Temperature Precip Pressure Wind  
Monday
02/02/2015
04:00 10:00 37°F   30.14 inHg Light breeze from east 4 mph
  10:00 16:00 52°F   30.14 inHg Light breeze from south-southeast 4 mph
  16:00 22:00 50°F < 0.01 in 30.09 inHg Light breeze from west-southwest 6 mph
  22:00 04:00 43°F 0.02 in 30.11 inHg Light air from east-southeast 3 mph
      Temperature Precip Pressure Wind  
Tuesday
02/03/2015
04:00 10:00 43°F   30.10 inHg Light air from southeast 3 mph
  10:00 16:00 46°F   30.13 inHg Light air from south 1 mph
  16:00 22:00 50°F   30.10 inHg Light breeze from west 4 mph
  22:00 04:00 34°F   30.14 inHg Light air from east-northeast 3 mph
      Temperature Precip Pressure Wind  
Wednesday
02/04/2015
04:00 10:00 32°F   30.13 inHg Light air from east-northeast 2 mph
  10:00 16:00 52°F   30.16 inHg Light air from east-southeast 2 mph
  16:00 22:00 55°F   30.10 inHg Light air from southwest 2 mph
  22:00 04:00 37°F   30.12 inHg Light breeze from east-northeast 4 mph
      Temperature Precip Pressure Wind  
Thursday
02/05/2015
04:00 10:00 36°F   30.10 inHg Light breeze from east-northeast 5 mph
  10:00 16:00 52°F   30.12 inHg Light air from east 2 mph
  16:00 22:00 55°F 0.02 in 30.08 inHg Light breeze from south 5 mph
  22:00 04:00 45°F 0.14 in 30.17 inHg Light air from east 3 mph
      Temperature Precip Pressure Wind  
Friday
02/06/2015
04:00 10:00 43°F 0.02 in 30.17 inHg Light breeze from east-northeast 5 mph
  10:00 16:00 52°F   30.19 inHg Light air from east 3 mph

Weather History For Wednesday, January 28, 2015


On this Day - In Weather History ...
Data courtesy of weatherforyou.com
powered by Cumulus v1.9.3 (1059)
Ambient Weather VWS v14.00
Top Contact Website Map Copyright © 2007 - 2015 Foresthillweather.com Never base important decisions on this or any weather information obtained from the Internet